Home > Weather > West Covina > Past weeks

Flag for USA Past Weather in West Covina, California, USA — Yesterday and Last 2 Weeks

Now
72 °F

Clear.


Feels Like: 73 °F
Forecast: 68 / 98 °F
Wind: 3 mph from South

Location: Fullerton Municipal Airport

Current Time: Aug 30, 2016 at 12:36:29 AM

Latest Report: Aug 29, 2016 at 11:53 PM


Visibility: 10 mi

Pressure: 29.87 "Hg

Humidity: 76%

Dew Point: 64 °F

Location of West CovinaLocation

Past Weather in West Covina — Graph

°F

West Covina Temperature Yesterday

Maximum temperature yesterday: 90 °F (at 4:53 PM)
Minimum temperature yesterday: 66 °F (at 5:53 AM)
Average temperature yesterday: 77 °F

High & Low Weather Summary for the Past Weeks

 TemperatureHumidityPressure
High98 °F (Aug 15, 1:53 PM)93% (Aug 17, 6:53 AM)30.03 "Hg (Aug 17, 6:53 AM)
Low61 °F (Aug 17, 6:53 AM)13% (Aug 17, 2:53 PM)29.77 "Hg (Aug 17, 6:53 PM)
Average74 °F60%29.90 "Hg
* Reported Aug 14 10:53 PM — Aug 29 10:53 PM, West Covina, Weather by CustomWeather, © 2016

Note: Actual official high and low records may vary slightly from our data, if they occured in-between our weather recording intervals... More about our weather records

Advertising

West Covina Weather History for the Previous 24 Hours

Scroll right to see more
 ConditionsComfort  
Time TempWeatherWind HumidityBarometerVisibility
10:53 PM
Mon, Aug 29
74 °FClear.3 mph67%29.86 "Hg10 mi
9:53 PM75 °FClear.No wind54%29.86 "Hg10 mi
8:53 PM77 °FClear.3 mph52%29.85 "Hg10 mi
7:53 PM78 °FSunny.3 mph48%29.83 "Hg10 mi
6:53 PM82 °FSunny.7 mph43%29.82 "Hg10 mi
5:53 PM87 °FSunny.5 mph40%29.81 "Hg10 mi
4:53 PM90 °FSunny.7 mph39%29.81 "Hg10 mi
3:53 PM89 °FSunny.6 mph39%29.83 "Hg10 mi
2:53 PM89 °FSunny.7 mph41%29.85 "Hg10 mi
1:53 PM89 °FSunny.6 mph41%29.88 "Hg10 mi
12:53 PM87 °FSunny.5 mph42%29.90 "Hg10 mi
11:53 AM85 °FSunny.3 mph45%29.92 "Hg10 mi
10:53 AM79 °FSunny.3 mph54%29.95 "Hg10 mi
9:53 AM76 °FSunny.No wind62%29.96 "Hg10 mi
8:53 AM71 °FSunny.No wind73%29.96 "Hg10 mi
7:53 AM69 °FSunny.3 mph79%29.96 "Hg8 mi
6:53 AM66 °FClear.No wind81%29.96 "Hg10 mi
5:53 AM66 °FClear.No wind78%29.93 "Hg10 mi
4:53 AM67 °FClear.No wind81%29.93 "Hg10 mi
3:53 AM67 °FClear.No wind85%29.94 "Hg10 mi
2:53 AM68 °FClear.No wind82%29.96 "Hg10 mi
1:53 AM69 °FClear.No wind79%29.96 "Hg10 mi
12:53 AM70 °FClear.No wind73%29.96 "Hg10 mi
Weather by CustomWeather, © 2016

See weather overviewHow to use our weather pages